{"data":{"norad_id":38040,"epoch":"2026-09-19T21:53:24.956160Z","epoch_age_seconds":69136,"freshness":"FRESH","line1":"1 38040U 11080A   26262.91209440 -.00000109  00000+0 -30975-4 0  9991","line2":"2 38040  51.9995  88.9047 0000564  75.1929  71.9912 12.62264074680725","mean_motion":12.62264074,"eccentricity":5.64e-5,"inclination_deg":51.9995,"raan_deg":88.9047,"arg_perigee_deg":75.1929,"mean_anomaly_deg":71.9912,"bstar":-3.0975e-5,"rev_number":68072,"period_min":114.08072444277,"perigee_km":1413.1738538618,"apogee_km":1414.0527632967,"semimajor_km":7791.7503085792,"source":"CELESTRAK","updated_at":"2026-09-20T09:00:45.039511Z"}}